Location: Unspecified
(0.0000°N, 0.0000°E)
Time: 00:46:11
(UTC+00:00)

THOR ABLESTAR DEB - Visible Passes

Search period start: 07 December 2021 00:00
Search period end: 17 December 2021 00:00
Orbit: 762 x 824 km, 65.8° (Epoch: 25 November)

Date Brightness Start Highest point End Pass type
(mag) Time Alt. Az. Time Alt. Az. Time Alt. Az.
07 Dec ? 18:34:54 10° S 18:39:43 32° ESE 18:43:30 15° NE visible
07 Dec ? 20:19:33 10° WSW 20:23:04 17° WNW 20:24:20 16° NW visible
08 Dec ? 19:48:24 10° SW 19:52:53 26° WNW 19:55:56 16° NNW visible
09 Dec ? 19:17:40 10° SW 19:22:41 38° WNW 19:27:34 11° N visible
10 Dec ? 18:47:10 10° SSW 18:52:31 57° WNW 18:57:55 10° N visible
11 Dec ? 18:16:52 10° SSW 18:22:20 86° WNW 18:27:51 10° NNE visible
12 Dec ? 05:11:54 10° NNE 05:15:46 20° ENE 05:19:34 10° ESE visible
13 Dec ? 04:43:08 10° NE 04:45:32 13° ENE 04:47:56 10° E visible
13 Dec ? 19:02:49 10° W 19:05:20 13° WNW 19:07:52 10° NW visible
14 Dec ? 18:31:11 10° WSW 18:35:06 20° WNW 18:39:04 10° NNW visible
15 Dec ? 05:23:08 10° NNW 05:28:30 88° ENE 05:33:50 10° SSE visible
16 Dec ? 04:53:02 10° N 04:58:19 58° ENE 05:03:32 10° SSE visible
